Date String (YYYY-MM-DD hh:mm:ss) UTC,Instrument flags,Ambient pressure (hPa),Sample flow (lpm),Bypass flow (lpm),Sample temperature (°C),Ambient temperature (°C),ASC tube jacket temperature (°C),LED temperature (°C),Box temperature (°C),Sample RH (%),Span deviation,Mass concentration (μg/m³),Mass concentration (μg/m³),Mass concentration (μg/m³)
DateTimeUTC,F1_M11,P_M11,Q1_M11,Q2_M11,T1_M11,T2_M11,T3_M11,T4_M11,T5_M11,U1_M11,ZSPAN_M11,X2_M11,X0_M11,X1_M11
2023-01-26 01:00:00,,0828.4,5.02,0.00,21.7,19.9,00.0,30.5,23.3,05.8,0000.0,0000.44,0000.84,0000.35
2023-01-26 01:01:00,,0828.4,5.00,0.00,21.7,20.0,00.0,30.5,23.4,05.9,0000.0,0000.44,0000.84,0000.35
2023-01-26 01:02:00,,0828.4,5.01,0.00,21.7,20.1,00.0,30.5,23.4,05.9,0000.0,0000.45,0000.86,0000.36
2023-01-26 01:03:00,,0828.4,5.00,0.00,21.7,21.1,00.0,30.5,23.6,05.9,0000.0,0000.45,0000.81,0000.36
2023-01-26 01:04:00,,0828.4,5.01,0.00,21.8,22.2,00.0,30.5,23.8,06.1,0000.0,0000.46,0000.78,0000.36
2023-01-26 01:05:00,,0828.4,4.99,0.00,21.9,22.6,00.0,30.5,24.0,06.0,0000.0,0000.46,0000.73,0000.36
2023-01-26 01:06:00,,0828.4,4.99,0.00,22.0,22.1,00.0,30.6,24.0,05.8,0000.0,0000.45,0000.68,0000.37
2023-01-26 01:07:00,,0828.3,5.01,0.00,22.0,21.7,00.0,30.6,23.9,05.9,0000.0,0000.43,0000.61,0000.37
2023-01-26 01:08:00,,0828.3,5.00,0.00,22.0,21.3,00.0,30.6,23.8,05.9,0000.0,0000.43,0000.60,0000.38
2023-01-26 01:09:00,,0828.3,4.99,0.00,22.0,21.0,00.0,30.7,23.8,05.8,0000.0,0000.44,0000.65,0000.38
2023-01-26 01:10:00,,0828.3,5.00,0.00,22.0,20.8,00.0,30.7,23.8,06.0,0000.0,0000.44,0000.66,0000.37
2023-01-26 01:11:00,,0828.3,4.99,0.00,22.0,20.6,00.0,30.7,23.7,06.1,0000.0,0000.45,0000.68,0000.38
2023-01-26 01:12:00,,0828.3,5.00,0.00,22.0,20.5,00.0,30.7,23.7,06.0,0000.0,0000.45,0000.68,0000.37
2023-01-26 01:13:00,,0828.3,5.00,0.00,21.9,20.4,00.0,30.7,23.7,05.9,0000.0,0000.45,0000.68,0000.37
2023-01-26 01:14:00,,0828.3,5.00,0.00,21.9,20.3,00.0,30.7,23.7,05.8,0000.0,0000.45,0000.67,0000.37
2023-01-26 01:15:00,,0828.4,4.98,0.00,21.9,20.2,00.0,30.7,23.6,05.8,0000.0,0000.44,0000.65,0000.37
2023-01-26 01:16:00,,0828.3,5.00,0.00,21.9,20.2,00.0,30.7,23.6,06.0,0000.0,0000.44,0000.64,0000.37
2023-01-26 01:17:00,,0828.4,4.99,0.00,21.9,20.1,00.0,30.7,23.6,05.9,0000.0,0000.43,0000.63,0000.36
2023-01-26 01:18:00,,0828.4,5.00,0.00,21.9,20.1,00.0,30.6,23.6,06.0,0000.0,0000.42,0000.62,0000.36
2023-01-26 01:19:00,,0828.4,5.01,0.00,21.9,20.1,00.0,30.6,23.6,06.0,0000.0,0000.44,0000.68,0000.35
2023-01-26 01:20:00,,0828.5,4.99,0.00,21.8,20.2,00.0,30.6,23.6,06.0,0000.0,0000.43,0000.68,0000.35
2023-01-26 01:21:00,,0828.5,5.00,0.00,21.8,20.2,00.0,30.6,23.6,05.9,0000.0,0000.42,0000.66,0000.35
2023-01-26 01:22:00,,0828.5,5.01,0.00,21.8,20.2,00.0,30.6,23.6,05.8,0000.0,0000.42,0000.65,0000.35
2023-01-26 01:23:00,,0828.5,5.00,0.00,21.8,20.2,00.0,30.6,23.6,06.0,0000.0,0000.44,0000.71,0000.35
2023-01-26 01:24:00,,0828.5,5.01,0.00,21.8,20.2,00.0,30.6,23.5,05.9,0000.0,0000.44,0000.71,0000.34
2023-01-26 01:25:00,,0828.6,5.02,0.00,21.8,20.2,00.0,30.6,23.5,05.8,0000.0,0000.43,0000.69,0000.35
2023-01-26 01:26:00,,0828.5,5.01,0.00,21.8,20.7,00.0,30.6,23.6,05.9,0000.0,0000.42,0000.69,0000.35
2023-01-26 01:27:00,,0828.7,5.00,0.00,21.9,21.8,00.0,30.6,23.8,05.9,0000.0,0000.43,0000.71,0000.35
2023-01-26 01:28:00,,0828.9,5.00,0.00,22.0,22.6,00.0,30.6,24.0,05.8,0000.0,0000.44,0000.73,0000.35
2023-01-26 01:29:00,,0828.9,4.99,0.00,22.1,22.4,00.0,30.7,24.1,05.8,0000.0,0000.45,0000.76,0000.36
2023-01-26 01:30:00,,0829.0,4.97,0.00,22.1,22.0,00.0,30.7,24.1,05.8,0000.0,0000.43,0000.70,0000.36
2023-01-26 01:31:00,,0828.7,5.01,0.00,22.1,21.6,00.0,30.7,24.0,05.8,0000.0,0000.42,0000.65,0000.37
2023-01-26 01:32:00,,0828.9,4.99,0.00,22.1,21.3,00.0,30.8,24.0,05.8,0000.0,0000.45,0000.70,0000.37
2023-01-26 01:33:00,,0828.5,4.99,0.00,22.1,21.1,00.0,30.8,23.9,05.9,0000.0,0000.46,0000.73,0000.37
2023-01-26 01:34:00,,0828.5,4.99,0.00,22.1,20.9,00.0,30.8,23.9,05.9,0000.0,0000.46,0000.71,0000.37
2023-01-26 01:35:00,,0828.5,4.97,0.00,22.1,20.8,00.0,30.8,23.9,05.8,0000.0,0000.46,0000.72,0000.38
2023-01-26 01:36:00,,0828.5,4.99,0.00,22.1,20.7,00.0,30.8,23.9,05.4,0000.0,0000.46,0000.72,0000.38
2023-01-26 01:37:00,,0828.6,5.02,0.00,22.1,20.6,00.0,30.8,23.9,05.6,0000.0,0000.46,0000.72,0000.38
2023-01-26 01:38:00,,0828.5,4.99,0.00,22.1,20.6,00.0,30.8,23.9,05.7,0000.0,0000.46,0000.72,0000.38
2023-01-26 01:39:00,,0828.6,5.01,0.00,22.1,20.6,00.0,30.8,23.8,05.8,0000.0,0000.46,0000.71,0000.38
2023-01-26 01:40:00,,0828.6,5.02,0.00,22.1,20.6,00.0,30.8,23.8,05.7,0000.0,0000.45,0000.69,0000.38
2023-01-26 01:41:00,,0828.8,4.99,0.00,22.0,20.6,00.0,30.8,23.8,05.7,0000.0,0000.46,0000.69,0000.38
2023-01-26 01:42:00,,0828.9,5.01,0.00,22.0,20.5,00.0,30.8,23.8,05.8,0000.0,0000.46,0000.73,0000.38
2023-01-26 01:43:00,,0828.9,5.01,0.00,22.0,20.5,00.0,30.8,23.8,05.8,0000.0,0000.45,0000.68,0000.38
2023-01-26 01:44:00,,0829.1,5.01,0.00,22.0,20.4,00.0,30.8,23.8,05.7,0000.0,0000.44,0000.66,0000.38
2023-01-26 01:45:00,,0829.2,5.00,0.00,22.0,20.4,00.0,30.8,23.7,05.7,0000.0,0000.43,0000.64,0000.38
2023-01-26 01:46:00,,0829.1,5.00,0.00,22.0,20.4,00.0,30.8,23.7,05.8,0000.0,0000.41,0000.60,0000.38
2023-01-26 01:47:00,,0829.0,5.01,0.00,22.0,20.4,00.0,30.8,23.7,05.8,0000.0,0000.43,0000.65,0000.38
2023-01-26 01:48:00,,0829.1,5.00,0.00,22.0,20.4,00.0,30.8,23.7,05.9,0000.0,0000.46,0000.71,0000.38
2023-01-26 01:49:00,,0828.9,5.01,0.00,22.0,20.5,00.0,30.8,23.7,05.8,0000.0,0000.46,0001.38,0000.38
2023-01-26 01:50:00,,0828.8,5.01,0.00,22.0,21.4,00.0,30.8,23.9,05.7,0000.0,0000.47,0001.61,0000.38
2023-01-26 01:51:00,,0828.6,4.99,0.00,22.1,22.4,00.0,30.8,24.1,05.7,0000.0,0000.46,0001.59,0000.38
2023-01-26 01:52:00,,0828.6,4.98,0.00,22.2,22.8,00.0,30.8,24.3,05.7,0000.0,0000.47,0001.60,0000.38
2023-01-26 01:53:00,,0828.9,4.99,0.00,22.3,22.4,00.0,30.9,24.2,05.5,0000.0,0000.46,0001.58,0000.39
2023-01-26 01:54:00,,0828.6,5.01,0.00,22.3,22.0,00.0,30.9,24.2,05.4,0000.0,0000.47,0001.58,0000.40
2023-01-26 01:55:00,,0828.8,5.00,0.00,22.3,21.6,00.0,30.9,24.1,05.6,0000.0,0000.46,0001.56,0000.39
2023-01-26 01:56:00,,0828.9,5.01,0.00,22.3,21.4,00.0,30.9,24.1,05.8,0000.0,0000.46,0001.56,0000.40
2023-01-26 01:57:00,,0829.2,5.00,0.00,22.2,21.1,00.0,30.9,24.0,05.7,0000.0,0000.46,0001.55,0000.40
2023-01-26 01:58:00,,0829.2,4.99,0.00,22.2,20.9,00.0,30.9,24.0,05.6,0000.0,0000.45,0001.52,0000.40
2023-01-26 01:59:00,,0829.1,5.00,0.00,22.2,20.6,00.0,30.9,23.9,05.6,0000.0,0000.44,0001.57,0000.40
